LXJ655 KBZN-EGLF

Flight info

Callsign LXJ655
Flight time N/A
Altitude 41000
Route NUKUW DCT ESTRO DCT GGW DCT WHIST DCT YDN DCT POPLR DCT 57N090W DCT DUGNO DCT TEFFO/N0500F450 DCT KAGLY/M087F450 DCT CLAVY DCT 65N050W 65N040W 64N030W 61N020W DCT GOMUP/N0497F450 DCT GINGA DCT SOSIM L15 KEPAD L151 KIDLI N859 CPT
Aircraft GLF6/M-SBDE2E3FGHIJ4J5M1RWXY/LB1D1

Departure

Time N/A
Airport Bozeman Yellowstone International Airport (KBZN)

Arrival

Time 2026-04-25 06:58
Airport Farnborough Airport (EGLF)
Time Latitude Longitude Altitude Speed Heading
2026-04-25 06:17 54.04544 -4.84180 47181 ft 529 kts 140°
2026-04-25 06:18 53.98969 -4.76054 47170 ft 529 kts 140°
2026-04-25 06:18 53.93353 -4.67899 47187 ft 530 kts 140°
2026-04-25 06:19 53.87718 -4.59746 47183 ft 530 kts 140°
2026-04-25 06:19 53.82074 -4.51575 47154 ft 530 kts 137°
2026-04-25 06:19 53.79713 -4.46819 47209 ft 528 kts 126°
2026-04-25 06:20 53.77551 -4.41800 47149 ft 531 kts 126°
2026-04-25 06:20 53.73118 -4.31821 47129 ft 530 kts 132°
2026-04-25 06:21 53.68126 -4.22644 47148 ft 530 kts 130°
2026-04-25 06:21 53.63434 -4.13046 47173 ft 531 kts 130°
2026-04-25 06:22 53.58740 -4.03354 47164 ft 531 kts 130°
2026-04-25 06:22 53.54061 -3.93723 47156 ft 532 kts 129°
2026-04-25 06:23 53.49421 -3.84207 47163 ft 532 kts 129°
2026-04-25 06:23 53.44752 -3.74668 47195 ft 532 kts 129°
2026-04-25 06:24 53.40029 -3.65055 47163 ft 532 kts 129°
2026-04-25 06:24 53.35348 -3.55564 47196 ft 531 kts 129°
2026-04-25 06:25 53.30642 -3.46058 47206 ft 532 kts 129°
2026-04-25 06:25 53.26257 -3.37236 47203 ft 532 kts 129°
2026-04-25 06:26 53.22577 -3.29853 47207 ft 530 kts 130°
2026-04-25 06:26 53.17891 -3.20485 47184 ft 530 kts 130°
2026-04-25 06:27 53.13204 -3.11151 47183 ft 529 kts 130°
2026-04-25 06:27 53.08489 -3.01795 47193 ft 529 kts 130°
2026-04-25 06:28 53.03803 -2.92532 47210 ft 530 kts 130°
2026-04-25 06:28 52.99075 -2.83220 47196 ft 530 kts 130°
2026-04-25 06:29 52.94321 -2.73892 47200 ft 530 kts 130°
2026-04-25 06:29 52.89601 -2.64664 47209 ft 530 kts 130°
2026-04-25 06:30 52.84853 -2.55418 47227 ft 530 kts 130°
2026-04-25 06:30 52.79774 -2.46703 47202 ft 525 kts 144°
2026-04-25 06:31 52.73751 -2.39919 47197 ft 528 kts 146°
2026-04-25 06:31 52.67727 -2.33277 47198 ft 529 kts 147°
2026-04-25 06:32 52.61600 -2.26553 47177 ft 529 kts 147°
2026-04-25 06:32 52.55552 -2.19938 47164 ft 529 kts 147°
2026-04-25 06:33 52.49416 -2.13250 47194 ft 529 kts 147°
2026-04-25 06:33 52.43352 -2.06662 47204 ft 528 kts 147°
2026-04-25 06:34 52.37300 -2.00106 47148 ft 532 kts 147°
2026-04-25 06:34 52.34215 -1.96775 46262 ft 532 kts 147°
2026-04-25 06:34 52.31159 -1.93481 45411 ft 516 kts 147°
2026-04-25 06:34 52.28230 -1.90328 44750 ft 508 kts 147°
2026-04-25 06:35 52.25282 -1.87162 44047 ft 503 kts 147°
2026-04-25 06:35 52.22423 -1.84094 43370 ft 500 kts 148°
2026-04-25 06:35 52.19519 -1.80983 42680 ft 496 kts 148°
2026-04-25 06:35 52.16660 -1.77925 41976 ft 493 kts 148°
2026-04-25 06:36 52.13822 -1.74895 41280 ft 491 kts 148°
2026-04-25 06:36 52.10978 -1.71863 40577 ft 488 kts 148°
2026-04-25 06:36 52.08157 -1.68859 39126 ft 485 kts 148°
2026-04-25 06:36 52.05477 -1.66001 37628 ft 451 kts 148°
2026-04-25 06:37 52.02955 -1.63309 36138 ft 427 kts 149°
2026-04-25 06:37 52.00536 -1.60745 34760 ft 410 kts 149°
2026-04-25 06:37 51.98226 -1.58305 33085 ft 395 kts 149°
2026-04-25 06:37 51.96013 -1.55967 31439 ft 383 kts 150°
2026-04-25 06:38 51.93853 -1.53690 29881 ft 370 kts 150°
2026-04-25 06:38 51.91780 -1.51508 28433 ft 359 kts 150°
2026-04-25 06:38 51.89737 -1.49359 26970 ft 349 kts 150°
2026-04-25 06:38 51.87765 -1.47287 25531 ft 341 kts 150°
2026-04-25 06:39 51.85836 -1.45259 24179 ft 334 kts 150°
2026-04-25 06:39 51.83939 -1.43267 22873 ft 329 kts 149°
2026-04-25 06:39 51.82077 -1.41315 21593 ft 324 kts 149°
2026-04-25 06:39 51.80207 -1.39356 20283 ft 319 kts 149°
2026-04-25 06:40 51.78376 -1.37440 18971 ft 314 kts 148°
2026-04-25 06:40 51.76491 -1.35818 17677 ft 307 kts 162°
2026-04-25 06:40 51.74503 -1.34792 16385 ft 303 kts 164°
2026-04-25 06:40 51.72534 -1.33794 15064 ft 299 kts 163°
2026-04-25 06:41 51.70593 -1.32810 13740 ft 294 kts 163°
2026-04-25 06:41 51.68694 -1.31846 12412 ft 291 kts 163°
2026-04-25 06:41 51.66813 -1.30890 11058 ft 286 kts 163°
2026-04-25 06:41 51.64964 -1.29952 9699 ft 282 kts 163°
2026-04-25 06:42 51.63143 -1.29031 8348 ft 277 kts 163°
2026-04-25 06:42 51.61343 -1.28120 6967 ft 273 kts 162°
2026-04-25 06:42 51.59598 -1.27237 5973 ft 254 kts 162°
2026-04-25 06:42 51.57990 -1.26424 5330 ft 234 kts 162°
2026-04-25 06:43 51.56344 -1.25592 5402 ft 266 kts 162°
2026-04-25 06:43 51.54527 -1.24675 5415 ft 277 kts 162°
2026-04-25 06:43 51.52666 -1.23737 5405 ft 286 kts 162°
2026-04-25 06:43 51.50722 -1.22758 5407 ft 293 kts 162°
2026-04-25 06:44 51.48737 -1.21864 5327 ft 300 kts 169°
2026-04-25 06:44 51.46644 -1.21365 5388 ft 305 kts 171°
2026-04-25 06:44 51.44562 -1.20882 5360 ft 298 kts 171°
2026-04-25 06:44 51.42546 -1.20409 5293 ft 280 kts 171°
2026-04-25 06:45 51.40679 -1.19969 5278 ft 263 kts 171°
2026-04-25 06:45 51.38906 -1.19551 5268 ft 248 kts 171°
2026-04-25 06:45 51.37241 -1.19159 5250 ft 235 kts 171°
2026-04-25 06:45 51.35658 -1.18787 5227 ft 222 kts 171°
2026-04-25 06:46 51.34140 -1.18430 5176 ft 222 kts 171°
2026-04-25 06:46 51.32568 -1.18060 5216 ft 233 kts 171°
2026-04-25 06:46 51.30918 -1.17672 5245 ft 244 kts 171°
2026-04-25 06:46 51.29199 -1.17270 5283 ft 255 kts 171°
2026-04-25 06:47 51.27407 -1.16850 5298 ft 264 kts 171°
2026-04-25 06:47 51.25542 -1.16413 5260 ft 272 kts 171°
2026-04-25 06:47 51.23637 -1.15967 5241 ft 279 kts 171°
2026-04-25 06:47 51.21711 -1.15517 5321 ft 285 kts 171°
2026-04-25 06:48 51.19711 -1.15050 5296 ft 282 kts 171°
2026-04-25 06:48 51.17931 -1.14636 5125 ft 231 kts 171°
2026-04-25 06:48 51.16435 -1.14287 5022 ft 205 kts 171°
2026-04-25 06:48 51.15077 -1.13970 4979 ft 189 kts 171°
2026-04-25 06:49 51.13760 -1.13760 4992 ft 193 kts 187°
2026-04-25 06:49 51.12585 -1.14776 5020 ft 203 kts 232°
2026-04-25 06:49 51.12165 -1.16933 5014 ft 212 kts 277°
2026-04-25 06:49 51.12823 -1.18995 5015 ft 219 kts 320°
2026-04-25 06:50 51.14158 -1.20289 4988 ft 233 kts 334°
2026-04-25 06:50 51.15579 -1.21396 4979 ft 217 kts 336°
2026-04-25 06:50 51.16908 -1.22341 4984 ft 198 kts 345°
2026-04-25 06:50 51.18174 -1.22174 4995 ft 180 kts 31°
2026-04-25 06:51 51.18982 -1.20753 4993 ft 174 kts 57°
2026-04-25 06:51 51.19602 -1.19118 4980 ft 165 kts 65°
2026-04-25 06:51 51.19971 -1.17407 4795 ft 166 kts 76°
2026-04-25 06:51 51.20193 -1.15593 4585 ft 166 kts 81°
2026-04-25 06:52 51.20337 -1.13754 4356 ft 175 kts 84°
2026-04-25 06:52 51.20451 -1.11728 4075 ft 190 kts 85°
2026-04-25 06:52 51.20547 -1.09580 3760 ft 195 kts 85°
2026-04-25 06:52 51.20633 -1.07460 3383 ft 189 kts 85°
2026-04-25 06:53 51.20713 -1.05398 2988 ft 185 kts 86°
2026-04-25 06:53 51.20790 -1.03373 2713 ft 176 kts 86°
2026-04-25 06:53 51.20856 -1.01594 2662 ft 142 kts 86°
2026-04-25 06:53 51.20910 -1.00142 2662 ft 126 kts 86°
2026-04-25 06:54 51.20960 -0.98781 2688 ft 125 kts 86°
2026-04-25 06:54 51.21027 -0.97378 2688 ft 129 kts 77°
2026-04-25 06:54 51.21404 -0.96066 2701 ft 130 kts 62°
2026-04-25 06:54 51.21835 -0.94776 2695 ft 133 kts 62°
2026-04-25 06:55 51.22276 -0.93463 2696 ft 135 kts 62°
2026-04-25 06:55 51.22739 -0.92083 2547 ft 147 kts 62°
2026-04-25 06:55 51.23224 -0.90639 2318 ft 147 kts 62°
2026-04-25 06:55 51.23682 -0.89275 2062 ft 129 kts 62°
2026-04-25 06:56 51.24081 -0.88086 1851 ft 119 kts 62°
2026-04-25 06:56 51.24467 -0.86932 1671 ft 115 kts 62°
2026-04-25 06:56 51.24844 -0.85807 1497 ft 116 kts 62°
2026-04-25 06:56 51.25229 -0.84654 1319 ft 121 kts 62°
2026-04-25 06:57 51.25631 -0.83453 1120 ft 124 kts 62°
2026-04-25 06:57 51.26033 -0.82257 912 ft 121 kts 62°
2026-04-25 06:57 51.26424 -0.81086 716 ft 118 kts 62°
2026-04-25 06:57 51.26799 -0.79963 533 ft 115 kts 63°
2026-04-25 06:58 51.27181 -0.78822 348 ft 116 kts 62°
2026-04-25 06:58 51.27546 -0.77721 241 ft 88 kts 62°
2026-04-25 06:58 51.27746 -0.77110 241 ft 59 kts 60°
2026-04-25 06:58 51.27875 -0.76733 242 ft 27 kts 62°
2026-04-25 06:59 51.27983 -0.76521 242 ft 21 kts 341°
2026-04-25 06:59 51.28037 -0.76693 242 ft 15 kts 287°
2026-04-25 06:59 51.28052 -0.76774 242 ft 0 kts 287°
2026-04-25 07:00 51.28057 -0.76793 242 ft 4 kts 287°
2026-04-25 07:00 51.28070 -0.76861 241 ft 8 kts 287°
2026-04-25 07:00 51.28093 -0.76975 241 ft 13 kts 287°
2026-04-25 07:00 51.28125 -0.77137 242 ft 17 kts 287°
2026-04-25 07:01 51.28168 -0.77354 241 ft 23 kts 287°
2026-04-25 07:01 51.28176 -0.77391 241 ft 4 kts 287°
2026-04-25 07:01 51.28191 -0.77468 241 ft 8 kts 287°
2026-04-25 07:01 51.28209 -0.77559 241 ft 9 kts 285°
2026-04-25 07:02 51.28245 -0.77680 241 ft 13 kts 347°
2026-04-25 07:02 51.28270 -0.77672 241 ft 0 kts 32°